Location: Beutels
(47.8767°N, 9.8584°E)
Time: 17:28:01
(UTC+00:00)

Daily predictions for brighter satellites

Satellite Brightness Start Highest point End
(mag) Time Altitude Azimuth Time Altitude Azimuth Time Altitude Azimuth
Meteor 1-20 Rocket 4.3 19:27:24 10° N 19:33:13 81° ENE 19:39:03 10° SSE
SWAS 4.3 19:31:09 10° SSW 19:35:14 80° ESE 19:39:20 10° NNE
Cosmos 1400 Rocket 3.1 19:32:00 10° SSE 19:35:26 38° E 19:38:52 10° NNE
Cosmos 1346 Rocket 4.0 19:33:26 10° NNE 19:36:33 25° ENE 19:39:38 10° SE
CZ-4C R/B 3.2 19:30:38 10° NW 19:37:43 81° SW 19:46:24 10° SSE
CZ-4B R/B 3.6 19:34:57 10° S 19:39:43 75° WSW 19:44:37 10° NNW
CSL-04 Rocket 4.4 19:35:52 10° S 19:41:07 53° W 19:46:21 10° NNW
Cosmos 1953 Rocket 3.6 19:37:06 10° N 19:41:34 69° E 19:46:00 10° SSE
Ariane Rocket 4.3 19:37:36 10° ESE 19:41:42 25° ENE 19:45:48 10° N
Cosmos 1697 Rocket 3.5 19:36:42 10° NNW 19:42:00 39° NE 19:47:17 10° ESE
Cosmos 44 4.2 19:37:52 10° NNW 19:42:04 36° NE 19:46:27 10° ESE
Meteor 1-25 Rocket 4.2 19:42:39 10° N 19:48:14 84° ENE 19:53:46 10° SSE
Cosmos 2074 Rocket 4.1 19:42:30 10° N 19:48:46 84° W 19:54:58 10° S
Lacrosse 5 rocket 1.5 19:45:35 10° NW 19:49:05 50° NNE 19:52:28 10° ESE
SPOT 5 3.1 19:47:21 10° S 19:51:38 60° WSW 19:55:55 10° NNW
Cosmos 1814 Rocket 3.9 19:46:54 10° SSW 19:52:00 77° ESE 19:57:12 10° NNE
Cosmos 1867 4.3 19:50:19 10° NNW 19:55:35 46° NE 20:00:45 10° ESE
Cosmos-2242 3.6 19:51:52 10° SSE 19:55:48 37° E 19:59:45 10° NNE
Nadezhda 1 Rocket 4.0 19:49:56 10° S 19:55:56 66° E 20:02:03 10° NNE
Alouette 2 Rocket 3.8 19:52:56 10° NNW 19:56:33 65° W 20:01:02 10° S
Cosmos 1656 3.9 19:52:22 10° NNW 19:58:00 72° WSW 20:03:31 10° SSE
Cosmos 2154 Rocket 4.1 19:52:26 10° N 19:58:40 85° W 20:04:53 10° S
Cosmos 2184 Rocket 4.3 19:55:26 10° NNW 20:01:39 71° W 20:07:56 10° S
SeaSat 1 4.0 19:57:48 10° E 20:01:42 24° NE 20:05:37 10° N
Cosmos 2082 Rocket 4.0 20:00:26 10° ESE 20:02:15 12° E 20:04:03 10° ENE
Cosmos 1933 3.2 19:58:56 10° S 20:02:47 82° E 20:06:40 10° N
Okean O Rocket 2.0 19:58:36 10° S 20:02:55 65° WSW 20:07:16 10° NNW
Cosmos 2221 4.4 20:01:07 10° ESE 20:03:03 14° E 20:05:09 10° NE
Iridium 4 Rocket 3.6 20:01:10 10° N 20:06:17 89° W 20:11:49 10° S
SPOT 3 Rocket 4.1 20:02:59 12° SE 20:07:25 43° ENE 20:12:15 10° N
Okean-O 2.7 20:04:03 10° S 20:08:26 79° WSW 20:12:51 10° NNW
ERS-1 Rocket 3.1 20:05:28 10° S 20:10:29 78° WSW 20:15:32 10° NNW
Cosmos 1743 2.8 20:14:39 10° NNW 20:18:03 63° W 20:21:20 10° S
ISS -3.0 20:16:43 10° WNW 20:20:00 51° NNE 20:23:18 10° E
Cosmos 2084 Rocket 4.1 20:17:40 10° S 20:21:29 32° ESE 20:25:17 10° ENE
Spot 2 Rocket 3.5 20:17:40 12° SSE 20:22:15 83° ENE 20:27:19 10° NNW
BREEZE-M R/B 4.4 19:59:06 10° W 20:22:20 85° N 20:27:07 10° E
NOSS 3-1 (C) 3.1 20:18:52 10° SSW 20:23:22 49° ESE 20:28:44 10° NE
ARIANE 6 FM1 Upper Stage 2.6 20:19:22 10° SW 20:23:23 84° NW 20:27:26 10° NE
IKONOS-2 4.3 20:23:42 10° NNE 20:27:50 77° ESE 20:31:57 10° S
Cosmos 1833 Rocket 2.6 20:23:55 10° SSW 20:29:32 76° ESE 20:35:12 10° NNE
Cosmos 1356 Rocket 3.9 20:28:39 18° SSE 20:31:18 40° E 20:35:10 10° NNE
SL-24 R/B 4.4 20:30:54 18° SSE 20:33:59 78° ENE 20:38:07 10° N
Cosmos 1733 2.5 20:31:16 10° N 20:34:22 83° ENE 20:36:07 23° SSE
DELTA 2 R/B (1) 4.4 20:30:37 10° SW 20:35:14 28° SSE 20:38:26 17° ESE
Cosmos 158 Rocket 4.2 20:33:08 10° SSW 20:38:27 78° WNW 20:43:51 10° NNE
USA 245 3.8 20:35:19 16° S 20:38:38 72° WSW 20:43:45 10° NNW
Cosmos 1900 4.4 20:34:51 10° NW 20:39:59 83° WSW 20:43:28 21° SSE
Cosmos 2218 Rocket 4.1 20:35:02 10° N 20:41:24 65° ENE 20:46:01 19° SSE
Cosmos 2058 Rocket 4.0 20:39:07 10° SSW 20:43:27 48° WNW 20:47:46 10° N
Cosmos 1805 4.2 20:46:37 10° NNE 20:49:37 27° ENE 20:50:42 23° ESE
SWARM A 4.4 20:48:26 29° SSE 20:49:52 55° E 20:53:12 10° N
PSLV R/B 3.3 20:49:41 27° S 20:51:18 73° WSW 20:54:33 10° NNW
Cosmos 1812 Rocket 3.6 20:48:57 22° SSE 20:51:32 58° E 20:55:47 10° NNE
NOSS 3-1 (A) 3.5 20:50:27 20° S 20:53:05 35° ESE 20:58:05 10° NE
Cosmos 1980 Rocket 2.4 20:48:23 10° NNW 20:53:57 61° ENE 20:57:27 23° SE
Terra 3.1 20:50:25 10° SSW 20:54:41 34° W 20:58:59 10° NNW
ATLAS CENTAUR R/B 2.3 20:51:44 10° WSW 20:55:18 45° NW 20:59:00 10° NNE
USA 234 3.3 20:50:19 10° NE 20:56:54 88° NW 21:03:27 10° WSW
Cosmos 1315 Rocket 2.9 20:55:12 28° SSE 20:56:59 52° E 21:00:46 10° NNE
NOSS 7 (H) 4.2 20:55:38 10° NW 20:58:33 65° SW 20:59:36 37° SSE
Cosmos 1959 Rocket 4.5 20:53:11 10° N 20:59:24 82° E 21:03:44 21° SSE
BREEZE-M DEB (TANK) 4.5 20:38:26 10° W 20:59:40 81° N 21:04:46 10° E
Meteor 1-26 Rocket 4.4 20:54:12 10° SSW 21:00:04 80° WNW 21:06:06 10° N
Cosmos 2208 Rocket 4.0 20:55:03 11° SSW 21:00:09 71° ESE 21:05:28 10° NNE
Cosmos 2181 Rocket 4.0 20:58:42 18° S 21:03:25 69° E 21:09:45 10° NNE
SL-16 R/B 3.9 21:00:13 10° N 21:04:42 23° NE 21:09:11 10° E
DELTA 2 DEB (DPAF) 4.2 21:04:06 10° NNE 21:07:53 43° E 21:09:02 34° SE
Meteor 1-11 Rocket 4.4 21:02:57 10° N 21:08:08 39° ENE 21:10:57 23° SE
BlueWalker 3 1.9 21:05:35 10° WNW 21:09:10 57° SSW 21:10:12 39° SSE
SL-24 R/B 4.1 21:05:58 10° NNE 21:10:16 72° ESE 21:12:50 25° S
Cosmos 1125 Rocket 4.3 21:05:30 10° NW 21:10:31 44° WSW 21:14:02 18° SSW
Meteor 2-10 4.2 21:04:51 10° NNW 21:10:34 87° W 21:13:58 25° S
Cosmos 1346 Rocket 4.5 21:08:49 10° NW 21:11:54 25° W 21:14:32 12° SW
Cosmos 2322 Rocket 4.3 21:09:32 10° N 21:13:26 19° NE 21:17:18 10° E
Cosmos 2366 rocket 4.2 21:10:17 10° NNW 21:16:37 69° W 21:21:08 20° S
SL-24 DEB 4.3 21:14:17 25° S 21:16:52 73° W 21:21:26 10° N
CZ-4C R/B 4.0 21:16:22 10° NE 21:19:35 29° E 21:19:42 29° E
Ariane Rocket 3.6 21:16:59 20° SSW 21:20:17 50° W 21:25:14 10° NNW
Meteor 1-14 Rocket 4.2 21:15:05 10° N 21:20:43 85° E 21:23:49 29° SSE
Cosmos 44 4.1 21:18:56 10° NW 21:23:11 38° WSW 21:25:13 25° SSW
Cosmos 1238 Rocket 2.5 21:22:13 32° SSW 21:23:45 75° W 21:27:06 10° N
Nadezhda 3 Rocket 4.3 21:21:58 28° SSE 21:25:04 52° E 21:31:05 10° NNE
Cosmos 2298 Rocket 4.1 21:20:00 10° NNW 21:25:20 76° WSW 21:27:57 31° S
ARIANE 5 R/B 3.9 21:23:51 22° ESE 21:25:30 29° ENE 21:29:15 10° N
Cosmos 1697 Rocket 3.6 21:20:44 10° NW 21:25:58 40° WSW 21:29:17 20° SSW
Lacrosse 5 rocket 2.3 21:23:23 10° WNW 21:26:16 24° SW 21:26:34 24° SW
ATLAS 3B R/B 3.7 21:30:07 27° SE 21:32:31 32° ESE 21:39:08 10° NE
CENTAUR R/B 4.4 21:25:28 10° NW 21:32:33 37° NNE 21:40:45 10° E
Cosmos 2360 Rocket 4.2 21:29:05 10° N 21:33:16 21° NE 21:37:26 10° E
Meteor 2-6 Rocket 4.4 21:30:20 19° SSW 21:34:39 77° WNW 21:40:24 10° N
Cosmos 1536 2.6 21:32:42 10° NNW 21:36:32 79° W 21:37:32 47° S
SeaSat 1 2.5 21:36:40 35° S 21:38:43 68° WSW 21:43:37 10° NNW
Cosmos 2369 3.7 21:33:12 10° NNW 21:38:54 83° ENE 21:41:29 34° SSE
Cosmos 1867 4.5 21:34:06 10° NW 21:39:05 37° WSW 21:41:23 26° SSW
Cosmos 2221 2.8 21:37:29 26° SSW 21:39:39 60° WNW 21:43:47 10° N
Cosmos 405 Rocket 3.0 21:38:07 10° N 21:41:23 40° ENE 21:41:40 39° E
Cosmos 2150 Rocket 4.5 21:36:17 10° NNW 21:41:34 55° WSW 21:44:04 30° S
CZ-2C R/B 4.3 21:39:00 10° NNE 21:43:04 36° E 21:43:42 35° ESE
Okean 1 3.9 21:42:37 28° SW 21:44:13 48° WNW 21:47:47 10° N
Cosmos 2082 Rocket 2.1 21:42:04 26° SSW 21:45:16 74° ESE 21:50:54 10° NNE
Cosmos 1674 3.5 21:48:35 27° N 21:48:35 27° N 21:49:47 10° N
Timation 1 Rocket 4.3 21:47:15 31° S 21:50:06 62° ESE 21:56:01 10° NE
Cosmos 1932 4.5 21:43:55 10° NW 21:50:22 79° SW 21:53:27 34° SSE
ISS -3.0 21:53:33 10° WNW 21:56:12 42° WSW 21:56:12 42° WSW
Meteor 1-10 Rocket 4.3 21:54:21 31° S 21:57:22 89° ESE 22:03:15 10° NNE
Okean 3 Rocket 3.8 21:53:46 10° N 21:58:07 55° ENE 21:59:09 44° SE
COBE Rocket 4.0 21:53:28 10° N 21:58:36 85° WNW 22:00:56 34° SSW
Landsat 5 4.1 21:55:55 10° NNE 21:59:52 39° E 22:00:10 38° ESE
Cosmos 2239 Rocket 4.5 21:53:40 10° N 21:59:54 79° W 22:02:47 34° S
Cosmos 1766 Rocket 3.7 21:56:37 10° NNW 22:00:58 65° W 22:02:12 44° SSW
COSMOS 2406 3.2 21:59:10 37° S 22:01:23 64° ESE 22:07:02 10° NNE
USA 59 Rocket 0.1 22:10:24 40° ENE 22:10:24 40° ENE 22:12:27 10° NE
MetOp-A 3.9 22:10:43 44° SSE 22:12:23 90° E 22:17:37 10° NNW
Cosmos 2333 Rocket 3.2 22:07:18 10° NNW 22:12:42 40° NE 22:15:54 22° ESE
Cosmos 1151 Rocket 4.1 22:19:28 30° E 22:19:41 30° E 22:23:23 10° NNE
NOSS 2-1 (E) 3.4 22:21:20 48° NE 22:21:20 48° NE 22:23:38 10° NE
ALOS 2 3.0 22:19:44 43° ESE 22:20:43 52° ENE 22:25:01 10° N
Meteor 2-13 Rocket 4.4 22:19:05 37° S 22:21:42 87° E 22:27:52 10° N
Cosmos 2219 Rocket 3.8 22:23:36 10° NNW 22:28:25 28° NE 22:32:40 12° ESE
Meteor 2-4 Rocket 3.8 22:30:52 44° SSE 22:32:36 67° E 22:38:23 10° NNE
Meteor 1-27 Rocket 3.8 22:30:54 37° SSW 22:33:11 74° WNW 22:38:44 10° N
NOSS 2-1 (D) 3.2 22:36:14 60° NNW 22:36:14 60° NNW 22:39:05 10° NE
Cosmos 1980 Rocket 3.7 22:33:08 10° NW 22:37:29 24° WSW 22:39:12 20° SW
Sich 1 2.8 22:33:39 10° N 22:37:54 84° ENE 22:38:23 69° SSE
USA 234 4.3 22:33:24 10° NE 22:39:35 46° NNW 22:45:44 10° W
Genesis I 4.2 22:38:51 10° NW 22:40:24 29° NW 22:40:24 29° NW
NOSS 3-1 (A) 4.2 22:38:54 10° WSW 22:43:39 44° NW 22:49:28 10° NE
PSLV R/B 3.8 22:42:39 10° NNE 22:46:43 50° E 22:46:52 50° ESE
SL-16 R/B 2.1 22:43:45 10° NNW 22:49:26 77° WSW 22:51:04 48° S
Cosmos 1975 3.5 22:46:46 10° NNW 22:50:13 38° W 22:50:13 38° W
Cosmos 1707 2.6 22:51:13 65° N 22:51:13 65° N 22:54:09 10° N
Cosmos 1538 Rocket 3.9 22:50:41 46° SSW 22:52:15 83° WNW 22:57:26 10° NNE
Cosmos 1500 Rocket 3.4 22:48:38 10° N 22:53:02 82° W 22:53:33 67° SSW
NOSS 2-1 (C) 3.9 22:55:40 38° WNW 22:56:02 40° NW 22:58:55 10° NNE
Spot 4 4.1 22:56:44 47° SW 22:57:35 54° W 23:02:17 10° NNW
Cosmos 2322 Rocket 2.2 22:52:44 10° NNW 22:58:26 78° ENE 23:00:24 42° SE
Cosmos 1633 Rocket 4.3 22:55:51 10° N 22:59:43 30° ENE 23:00:47 27° E
ARIANE 5 R/B 3.6 23:01:14 31° WSW 23:01:45 32° W 23:05:42 10° NNW
Cosmos 1408 Rocket 3.8 22:57:38 10° NNW 23:01:53 54° W 23:02:20 51° WSW
Cosmos 1066 Rocket 4.2 23:04:55 48° S 23:06:33 80° E 23:12:19 10° NNE
Cosmos 1908 4.1 23:04:00 10° NNW 23:06:26 32° WNW 23:06:26 32° WNW
Cosmos 1470 3.0 23:04:09 10° NNW 23:07:19 52° WNW 23:07:19 52° WNW
Meteor 2-10 Rocket 4.4 23:03:10 10° N 23:08:42 47° ENE 23:11:09 30° SE
Cosmos 1805 Rocket 3.7 23:04:43 10° NNW 23:09:06 59° W 23:09:35 55° SW
Cosmos 2278 4.0 23:10:04 10° NW 23:15:30 49° WSW 23:16:39 43° SW
GP-B 2.9 23:11:36 10° N 23:16:01 82° E 23:16:31 68° SSE
Meteor 1-18 Rocket 4.3 23:14:33 45° SSW 23:16:27 82° WNW 23:22:22 10° N
Exosat Rocket 3.6 23:12:29 10° NNW 23:17:27 60° WSW 23:18:24 50° SSW
Cosmos 2360 Rocket 2.1 23:12:22 10° NNW 23:18:02 89° SW 23:19:47 46° SSE
Cosmos 2173 Rocket 4.4 23:12:47 10° N 23:19:03 58° ENE 23:21:47 33° SE
ATLAS 3B R/B 3.1 23:17:16 20° SW 23:22:43 73° NW 23:30:37 10° NE
USA 229 DEB 3.4 23:20:46 36° SW 23:23:28 90° WSW 23:30:16 10° NE
Cosmos 1328 Rocket 3.9 23:23:10 46° ESE 23:23:33 47° E 23:27:43 10° NNE
USA 229 3.4 23:20:54 37° SW 23:23:35 89° ESE 23:30:21 10° NE
CENTAUR R/B 3.3 23:16:03 10° NW 23:24:19 87° NE 23:31:24 20° SE
ASTEX 1 3.3 23:20:04 10° N 23:25:02 85° E 23:26:06 56° S
Cosmos 1743 Rocket 3.9 23:23:01 10° NNW 23:27:20 51° W 23:27:46 49° WSW
Cosmos 2082 Rocket 4.2 23:25:28 10° W 23:29:57 24° NW 23:34:27 10° N
Celestis-02/Orion 38 4.5 23:31:28 52° S 23:32:40 72° WSW 23:37:45 10° NNW
In-Cosmos 22 4.4 23:31:00 43° SSE 23:32:42 62° E 23:38:23 10° NNE
Cosmos 1420 Rocket 4.1 23:37:10 10° NNW 23:42:24 60° WSW 23:43:26 50° SSW
Cosmos 2112 Rocket 4.0 23:41:11 52° S 23:42:26 75° ESE 23:47:40 10° NNE
Cosmos 1455 2.9 23:45:06 10° N 23:47:02 37° NNE 23:47:02 37° NNE
Cosmos 2237 Rocket 4.4 23:44:20 10° N 23:48:42 22° NE 23:53:04 10° E
Cosmos 1300 3.7 23:48:20 10° NNW 23:50:26 29° WNW 23:50:26 29° WNW
SL-14 R/B 3.3 23:53:45 63° ESE 23:53:54 64° E 23:57:44 10° NNE
